Time,TemperatureF,DewpointF,PressureIn,WindDirection,WindDirectionDegrees,WindSpeedMPH,WindSpeedGustMPH,Humidity,HourlyPrecipIn,Conditions,Clouds,dailyrainin,SoftwareType,DateUTC
2013-06-07 00:04:00,52.8,51.7,30.03,NNW,334,0.0,0.0,96,0.00,,OVC017,0.00,VWS V14.01,2013-06-07 05:04:00,
2013-06-07 00:10:00,52.8,51.4,30.02,NNW,333,0.0,0.0,95,0.00,,OVC017,0.00,VWS V14.01,2013-06-07 05:10:00,
2013-06-07 00:15:00,52.8,51.4,30.02,NNW,334,0.0,0.0,95,0.00,,OVC017,0.00,VWS V14.01,2013-06-07 05:15:00,
2013-06-07 00:20:00,52.8,51.7,30.02,NNW,333,0.0,0.0,96,0.00,,OVC019,0.00,VWS V14.01,2013-06-07 05:20:00,
2013-06-07 00:25:00,52.8,51.7,30.02,NNW,334,0.0,0.0,96,0.00,,OVC019,0.00,VWS V14.01,2013-06-07 05:25:00,
2013-06-07 00:30:00,52.8,51.7,30.02,NNW,334,0.0,0.0,96,0.00,,OVC019,0.00,VWS V14.01,2013-06-07 05:30:00,
2013-06-07 00:36:00,52.7,51.3,30.02,NNW,333,0.0,0.0,95,0.00,,OVC019,0.00,VWS V14.01,2013-06-07 05:36:00,
2013-06-07 00:42:00,52.7,51.6,30.02,NNW,334,0.0,0.0,96,0.00,,OVC019,0.00,VWS V14.01,2013-06-07 05:42:00,
2013-06-07 00:47:00,52.7,51.6,30.02,NNW,334,0.0,0.0,96,0.00,,OVC019,0.00,VWS V14.01,2013-06-07 05:47:00,
2013-06-07 00:52:00,52.7,51.6,30.02,NNW,334,0.0,0.0,96,0.00,,OVC019,0.00,VWS V14.01,2013-06-07 05:52:00,
2013-06-07 00:57:00,52.6,51.2,30.02,NNW,333,0.0,0.0,95,0.00,,OVC019,0.00,VWS V14.01,2013-06-07 05:57:00,
2013-06-07 01:03:00,52.6,51.2,30.02,NNW,333,0.0,0.0,95,0.00,,OVC019,0.00,VWS V14.01,2013-06-07 06:03:00,
2013-06-07 01:08:00,52.6,51.2,30.02,NNW,334,0.0,0.0,95,0.00,,OVC019,0.00,VWS V14.01,2013-06-07 06:08:00,
2013-06-07 01:13:00,52.6,51.2,30.02,NNW,333,0.0,0.0,95,0.00,,OVC019,0.00,VWS V14.01,2013-06-07 06:13:00,
2013-06-07 01:18:00,52.6,51.2,30.02,NNW,334,0.0,0.0,95,0.00,,OVC019,0.00,VWS V14.01,2013-06-07 06:18:00,
2013-06-07 01:24:00,52.6,51.2,30.02,NNW,334,0.0,0.0,95,0.00,,OVC026,0.00,VWS V14.01,2013-06-07 06:24:00,
2013-06-07 01:30:00,52.6,51.2,30.02,NNW,333,0.0,0.0,95,0.00,,OVC026,0.00,VWS V14.01,2013-06-07 06:30:00,
2013-06-07 01:35:00,52.6,51.2,30.02,NNW,334,0.0,0.0,95,0.00,,OVC026,0.00,VWS V14.01,2013-06-07 06:35:00,
2013-06-07 01:41:00,52.5,51.1,30.02,NNW,334,0.0,0.0,95,0.00,,OVC031,0.00,VWS V14.01,2013-06-07 06:41:00,
2013-06-07 01:46:00,52.5,51.1,30.02,NNW,334,0.0,0.0,95,0.00,,OVC031,0.00,VWS V14.01,2013-06-07 06:46:00,
2013-06-07 01:51:00,52.5,51.4,30.02,NNW,334,0.0,0.0,96,0.00,,OVC031,0.00,VWS V14.01,2013-06-07 06:51:00,
2013-06-07 01:56:00,52.5,51.4,30.02,NNW,334,0.0,0.0,96,0.00,,OVC031,0.00,VWS V14.01,2013-06-07 06:56:00,
2013-06-07 02:02:00,52.5,51.4,30.02,NNW,334,0.0,0.0,96,0.00,,OVC028,0.00,VWS V14.01,2013-06-07 07:02:00,
2013-06-07 02:07:00,52.5,51.4,30.02,NNW,334,0.0,0.0,96,0.00,,OVC028,0.00,VWS V14.01,2013-06-07 07:07:00,
2013-06-07 02:12:00,52.4,51.3,30.02,NNW,333,0.0,0.0,96,0.00,,OVC028,0.00,VWS V14.01,2013-06-07 07:12:00,
2013-06-07 02:18:00,52.4,51.3,30.02,NNW,333,0.0,0.0,96,0.00,,OVC028,0.00,VWS V14.01,2013-06-07 07:18:00,
2013-06-07 02:23:00,52.4,51.3,30.01,NNW,334,0.0,0.0,96,0.00,,OVC028,0.00,VWS V14.01,2013-06-07 07:23:00,
2013-06-07 02:28:00,52.3,51.2,30.01,NNW,334,0.0,0.0,96,0.00,,OVC028,0.00,VWS V14.01,2013-06-07 07:28:00,
2013-06-07 02:33:00,52.3,51.2,30.01,NNW,334,0.0,0.0,96,0.00,,OVC028,0.00,VWS V14.01,2013-06-07 07:33:00,
2013-06-07 02:38:00,52.2,51.1,30.01,NNW,334,0.0,0.0,96,0.00,,OVC028,0.00,VWS V14.01,2013-06-07 07:38:00,
2013-06-07 02:43:00,52.1,51.0,30.01,NNW,334,0.0,0.0,96,0.00,,OVC028,0.00,VWS V14.01,2013-06-07 07:43:00,
2013-06-07 02:48:00,52.1,51.0,30.01,NNW,334,0.0,0.0,96,0.00,,OVC028,0.00,VWS V14.01,2013-06-07 07:48:00,
2013-06-07 02:53:00,52.1,51.0,30.01,NNW,334,0.0,0.0,96,0.00,,OVC028,0.00,VWS V14.01,2013-06-07 07:53:00,
2013-06-07 02:58:00,52.1,51.0,30.01,NNW,334,0.0,0.0,96,0.00,,OVC028,0.00,VWS V14.01,2013-06-07 07:58:00,
2013-06-07 03:04:00,52.2,51.1,30.01,NNW,334,0.0,0.0,96,0.00,,OVC026,0.00,VWS V14.01,2013-06-07 08:04:00,
2013-06-07 03:09:00,52.2,51.1,30.01,NNW,334,0.0,0.0,96,0.00,,OVC026,0.00,VWS V14.01,2013-06-07 08:09:00,
2013-06-07 03:14:00,52.2,51.1,30.01,NNW,334,0.0,0.0,96,0.00,,OVC026,0.00,VWS V14.01,2013-06-07 08:14:00,
2013-06-07 03:19:00,52.2,51.1,30.01,NNW,334,0.0,0.0,96,0.00,,OVC026,0.00,VWS V14.01,2013-06-07 08:19:00,
2013-06-07 03:24:00,52.2,51.1,30.01,NNW,334,0.0,0.0,96,0.00,,OVC026,0.00,VWS V14.01,2013-06-07 08:24:00,
2013-06-07 03:30:00,52.2,51.1,30.01,NNW,334,0.0,0.0,96,0.00,,OVC045,0.00,VWS V14.01,2013-06-07 08:30:00,
2013-06-07 03:35:00,52.2,51.1,30.01,NNW,334,0.0,0.0,96,0.00,,OVC045,0.00,VWS V14.01,2013-06-07 08:35:00,
2013-06-07 03:41:00,52.1,51.0,30.01,NNW,333,0.0,0.0,96,0.00,,OVC045,0.00,VWS V14.01,2013-06-07 08:41:00,
2013-06-07 03:46:00,52.2,51.1,30.01,NNW,334,0.0,0.0,96,0.00,,OVC045,0.00,VWS V14.01,2013-06-07 08:46:00,
2013-06-07 03:51:00,52.2,51.1,30.01,NNW,334,0.0,0.0,96,0.00,,OVC045,0.00,VWS V14.01,2013-06-07 08:51:00,
2013-06-07 03:56:00,52.2,51.1,30.01,NNW,334,0.0,0.0,96,0.00,,OVC045,0.00,VWS V14.01,2013-06-07 08:56:00,
2013-06-07 04:01:00,52.2,51.1,30.01,NNW,333,0.0,0.0,96,0.00,,OVC045,0.00,VWS V14.01,2013-06-07 09:01:00,
2013-06-07 04:07:00,52.2,51.1,30.01,NNW,334,0.0,0.0,96,0.00,,OVC045,0.00,VWS V14.01,2013-06-07 09:07:00,
2013-06-07 04:12:00,52.2,51.1,30.01,NNW,334,0.0,0.0,96,0.00,,OVC045,0.00,VWS V14.01,2013-06-07 09:12:00,
2013-06-07 04:17:00,52.2,51.1,30.01,NNW,334,0.0,0.0,96,0.00,,OVC045,0.00,VWS V14.01,2013-06-07 09:17:00,
2013-06-07 04:23:00,52.2,51.1,30.01,NNW,333,0.0,0.0,96,0.00,,OVC011,0.00,VWS V14.01,2013-06-07 09:23:00,
2013-06-07 04:28:00,52.2,51.1,30.01,NNW,334,0.0,0.0,96,0.00,,OVC011,0.00,VWS V14.01,2013-06-07 09:28:00,
2013-06-07 04:33:00,52.2,51.1,30.01,NNW,334,0.0,0.0,96,0.00,,OVC011,0.00,VWS V14.01,2013-06-07 09:33:00,
2013-06-07 04:38:00,52.2,51.1,30.01,NNW,334,0.0,0.0,96,0.00,,OVC011,0.00,VWS V14.01,2013-06-07 09:38:00,
2013-06-07 04:43:00,52.2,51.1,30.01,NNW,334,0.0,0.0,96,0.00,,OVC022,0.00,VWS V14.01,2013-06-07 09:43:00,
2013-06-07 04:49:00,52.2,51.1,30.01,NNW,334,0.0,0.0,96,0.00,,OVC022,0.00,VWS V14.01,2013-06-07 09:49:00,
2013-06-07 04:55:00,52.2,51.1,30.01,NNW,334,0.0,0.0,96,0.00,,OVC022,0.00,VWS V14.01,2013-06-07 09:55:00,
2013-06-07 05:00:00,52.1,51.0,30.01,NNW,334,0.0,0.0,96,0.00,,OVC020,0.00,VWS V14.01,2013-06-07 10:00:00,
2013-06-07 05:05:00,52.1,51.0,30.01,NNW,334,0.0,0.0,96,0.00,,OVC020,0.00,VWS V14.01,2013-06-07 10:05:00,
2013-06-07 05:10:00,52.1,51.0,30.01,NNW,334,0.0,0.0,96,0.00,,OVC020,0.00,VWS V14.01,2013-06-07 10:10:00,
2013-06-07 05:15:00,52.1,51.0,30.01,NNW,334,0.0,0.0,96,0.00,,OVC020,0.00,VWS V14.01,2013-06-07 10:15:00,
2013-06-07 05:21:00,52.1,51.0,30.01,NNW,334,0.0,0.0,96,0.00,,OVC016,0.00,VWS V14.01,2013-06-07 10:21:00,
2013-06-07 05:26:00,52.1,51.0,30.02,NNW,334,0.0,0.0,96,0.00,,OVC016,0.00,VWS V14.01,2013-06-07 10:26:00,
2013-06-07 05:31:00,52.1,51.0,30.02,NNW,334,0.0,0.0,96,0.00,,OVC016,0.00,VWS V14.01,2013-06-07 10:31:00,
2013-06-07 05:37:00,52.1,51.0,30.02,NNW,334,0.0,0.0,96,0.00,,OVC016,0.00,VWS V14.01,2013-06-07 10:37:00,
2013-06-07 05:42:00,52.2,51.1,30.02,NNW,334,0.0,0.0,96,0.00,,OVC018,0.00,VWS V14.01,2013-06-07 10:42:00,
2013-06-07 05:48:00,52.2,51.1,30.02,NNW,333,0.0,0.0,96,0.00,,OVC018,0.00,VWS V14.01,2013-06-07 10:48:00,
2013-06-07 05:53:00,52.2,51.1,30.02,NNW,333,0.0,0.0,96,0.00,,OVC018,0.00,VWS V14.01,2013-06-07 10:53:00,
2013-06-07 05:58:00,52.3,51.2,30.02,NNW,333,0.0,0.0,96,0.00,,OVC018,0.00,VWS V14.01,2013-06-07 10:58:00,
2013-06-07 06:03:00,52.3,51.2,30.02,NNW,334,0.0,0.0,96,0.00,,OVC020,0.00,VWS V14.01,2013-06-07 11:03:00,
2013-06-07 06:08:00,52.4,51.6,30.03,NNW,333,0.0,0.0,97,0.00,,OVC020,0.00,VWS V14.01,2013-06-07 11:08:00,
2013-06-07 06:13:00,52.4,51.6,30.03,NNW,334,0.0,0.0,97,0.00,,OVC020,0.00,VWS V14.01,2013-06-07 11:13:00,
2013-06-07 06:18:00,52.4,51.6,30.03,NNW,334,0.0,0.0,97,0.00,,OVC020,0.00,VWS V14.01,2013-06-07 11:18:00,
2013-06-07 06:23:00,52.5,51.7,30.03,NNW,333,0.0,0.0,97,0.00,,OVC020,0.00,VWS V14.01,2013-06-07 11:23:00,
2013-06-07 06:29:00,52.6,51.8,30.03,NNW,334,0.0,0.0,97,0.00,,OVC020,0.00,VWS V14.01,2013-06-07 11:29:00,
2013-06-07 06:34:00,52.6,51.8,30.03,NNW,334,0.0,0.0,97,0.00,,OVC020,0.00,VWS V14.01,2013-06-07 11:34:00,
2013-06-07 06:39:00,52.6,51.8,30.03,NNW,334,0.0,0.0,97,0.00,,OVC020,0.00,VWS V14.01,2013-06-07 11:39:00,
2013-06-07 06:44:00,52.6,51.8,30.03,NNW,334,0.0,0.0,97,0.00,,OVC020,0.00,VWS V14.01,2013-06-07 11:44:00,
2013-06-07 06:49:00,52.7,51.9,30.03,NNW,334,0.0,0.0,97,0.00,,OVC020,0.00,VWS V14.01,2013-06-07 11:49:00,
2013-06-07 06:54:00,52.7,51.9,30.03,NNW,333,0.0,0.0,97,0.00,,OVC020,0.00,VWS V14.01,2013-06-07 11:54:00,
2013-06-07 06:59:00,52.7,51.6,30.03,NNW,334,0.0,0.0,96,0.00,,OVC020,0.00,VWS V14.01,2013-06-07 11:59:00,
2013-06-07 07:04:00,52.8,51.7,30.03,NNW,334,0.0,0.0,96,0.00,,OVC020,0.00,VWS V14.01,2013-06-07 12:04:00,
2013-06-07 07:10:00,52.9,51.8,30.03,NNW,334,0.0,0.0,96,0.00,,OVC020,0.00,VWS V14.01,2013-06-07 12:10:00,
2013-06-07 07:16:00,52.9,51.8,30.03,NNW,334,0.0,0.0,96,0.00,,OVC020,0.00,VWS V14.01,2013-06-07 12:16:00,
2013-06-07 07:21:00,53.0,51.9,30.04,NNW,333,0.0,0.0,96,0.00,,OVC043,0.00,VWS V14.01,2013-06-07 12:21:00,
2013-06-07 07:27:00,53.2,52.1,30.04,NNW,334,0.0,0.0,96,0.00,,OVC043,0.00,VWS V14.01,2013-06-07 12:27:00,
2013-06-07 07:32:00,53.3,52.2,30.03,NNW,333,0.0,0.0,96,0.00,,OVC043,0.00,VWS V14.01,2013-06-07 12:32:00,
2013-06-07 07:37:00,53.5,52.4,30.03,NNW,334,0.0,0.0,96,0.00,,OVC043,0.00,VWS V14.01,2013-06-07 12:37:00,
2013-06-07 07:42:00,53.6,52.5,30.03,NNW,334,0.0,0.0,96,0.00,,OVC022,0.00,VWS V14.01,2013-06-07 12:42:00,
2013-06-07 07:47:00,53.7,52.6,30.03,NNW,334,0.0,0.0,96,0.00,,OVC022,0.00,VWS V14.01,2013-06-07 12:47:00,
2013-06-07 07:53:00,53.9,52.8,30.04,NNW,333,0.0,0.0,96,0.00,,OVC022,0.00,VWS V14.01,2013-06-07 12:53:00,
2013-06-07 07:59:00,54.1,53.0,30.04,NNW,334,0.0,0.0,96,0.00,,OVC022,0.00,VWS V14.01,2013-06-07 12:59:00,
2013-06-07 08:04:00,54.2,53.1,30.04,NNW,334,0.0,0.0,96,0.00,,OVC009,0.00,VWS V14.01,2013-06-07 13:04:00,
2013-06-07 08:10:00,54.3,53.2,30.04,NNW,334,0.0,0.0,96,0.00,,OVC009,0.00,VWS V14.01,2013-06-07 13:10:00,
2013-06-07 08:16:00,54.4,53.0,30.04,NNW,334,0.0,0.0,95,0.00,,OVC009,0.00,VWS V14.01,2013-06-07 13:16:00,
2013-06-07 08:22:00,54.6,53.2,30.04,NNW,333,0.0,1.0,95,0.00,,OVC041,0.00,VWS V14.01,2013-06-07 13:22:00,
2013-06-07 08:27:00,54.7,53.3,30.04,NNW,327,0.0,0.0,95,0.00,,OVC041,0.00,VWS V14.01,2013-06-07 13:27:00,
2013-06-07 08:33:00,54.9,53.5,30.05,NNW,327,0.0,0.0,95,0.00,,OVC041,0.00,VWS V14.01,2013-06-07 13:33:00,
2013-06-07 08:38:00,55.1,53.7,30.05,NNW,327,0.0,0.0,95,0.00,,OVC041,0.00,VWS V14.01,2013-06-07 13:38:00,
2013-06-07 08:44:00,55.1,53.4,30.05,NNW,327,0.0,0.0,94,0.00,,OVC041,0.00,VWS V14.01,2013-06-07 13:44:00,
2013-06-07 08:49:00,55.1,53.1,30.05,NNW,327,0.0,0.0,93,0.00,,OVC041,0.00,VWS V14.01,2013-06-07 13:49:00,
2013-06-07 08:54:00,55.5,53.8,30.05,NNW,327,0.0,0.0,94,0.00,,OVC041,0.00,VWS V14.01,2013-06-07 13:54:00,
2013-06-07 08:59:00,55.6,53.6,30.05,NNW,327,0.0,0.0,93,0.00,,OVC041,0.00,VWS V14.01,2013-06-07 13:59:00,
2013-06-07 09:04:00,55.8,53.5,30.05,NW,323,0.0,0.0,92,0.00,,OVC043,0.00,VWS V14.01,2013-06-07 14:04:00,
2013-06-07 09:09:00,56.0,53.7,30.05,NW,323,0.0,0.0,92,0.00,,OVC043,0.00,VWS V14.01,2013-06-07 14:09:00,
2013-06-07 09:14:00,56.1,53.8,30.05,NW,323,0.0,0.0,92,0.00,,OVC043,0.00,VWS V14.01,2013-06-07 14:14:00,
2013-06-07 09:19:00,56.2,53.6,30.05,NW,321,0.0,1.0,91,0.00,,OVC043,0.00,VWS V14.01,2013-06-07 14:19:00,
2013-06-07 09:25:00,56.4,53.8,30.05,NW,321,0.0,0.0,91,0.00,,OVC043,0.00,VWS V14.01,2013-06-07 14:25:00,
2013-06-07 09:30:00,56.5,53.6,30.05,NW,321,0.0,0.0,90,0.00,,OVC043,0.00,VWS V14.01,2013-06-07 14:30:00,
2013-06-07 09:35:00,56.7,53.8,30.05,NW,321,0.0,0.0,90,0.00,,OVC043,0.00,VWS V14.01,2013-06-07 14:35:00,
2013-06-07 09:40:00,56.8,53.6,30.04,NW,321,1.0,1.0,89,0.00,,OVC013,0.00,VWS V14.01,2013-06-07 14:40:00,
2013-06-07 09:45:00,56.9,53.1,30.04,NW,321,0.0,0.0,87,0.00,,OVC013,0.00,VWS V14.01,2013-06-07 14:45:00,
2013-06-07 09:50:00,57.2,54.0,30.04,NW,321,0.0,0.0,89,0.00,,OVC013,0.00,VWS V14.01,2013-06-07 14:50:00,
2013-06-07 09:55:00,57.6,54.7,30.04,NW,321,0.0,0.0,90,0.00,,OVC013,0.00,VWS V14.01,2013-06-07 14:55:00,
2013-06-07 10:00:00,57.6,53.5,30.04,NW,321,0.0,0.0,86,0.00,,OVC020,0.00,VWS V14.01,2013-06-07 15:00:00,
2013-06-07 10:05:00,57.8,53.7,30.04,NW,321,0.0,0.0,86,0.00,,OVC020,0.00,VWS V14.01,2013-06-07 15:05:00,
2013-06-07 10:10:00,58.1,53.9,30.04,NW,315,0.0,0.0,86,0.00,,OVC020,0.00,VWS V14.01,2013-06-07 15:10:00,
2013-06-07 10:15:00,58.4,54.5,30.04,NW,315,0.0,0.0,87,0.00,,OVC020,0.00,VWS V14.01,2013-06-07 15:15:00,
2013-06-07 10:20:00,58.6,54.4,30.03,NW,315,0.0,1.0,86,0.00,,OVC044,0.00,VWS V14.01,2013-06-07 15:20:00,
2013-06-07 10:25:00,58.3,53.8,30.03,NW,315,0.0,0.0,85,0.00,,OVC044,0.00,VWS V14.01,2013-06-07 15:25:00,
2013-06-07 10:32:00,59.0,54.8,30.03,NW,315,0.0,0.0,86,0.00,,OVC044,0.00,VWS V14.01,2013-06-07 15:32:00,
2013-06-07 10:37:00,59.6,54.8,30.03,NW,315,0.0,0.0,84,0.00,,OVC044,0.00,VWS V14.01,2013-06-07 15:37:00,
2013-06-07 10:43:00,59.7,54.5,30.03,NW,315,0.0,0.0,83,0.00,,OVC044,0.00,VWS V14.01,2013-06-07 15:43:00,
2013-06-07 10:48:00,59.8,54.0,30.03,NW,319,0.0,0.0,81,0.00,,OVC044,0.00,VWS V14.01,2013-06-07 15:48:00,
2013-06-07 10:53:00,59.8,54.3,30.03,NW,319,0.0,0.0,82,0.00,,OVC044,0.00,VWS V14.01,2013-06-07 15:53:00,
2013-06-07 10:59:00,59.8,54.6,30.03,NW,319,0.0,0.0,83,0.00,,OVC044,0.00,VWS V14.01,2013-06-07 15:59:00,
2013-06-07 11:04:00,59.7,54.9,30.03,NW,317,0.0,1.0,84,0.00,,OVC044,0.00,VWS V14.01,2013-06-07 16:04:00,
2013-06-07 11:09:00,59.7,55.2,30.03,NW,317,0.0,0.0,85,0.00,,OVC044,0.00,VWS V14.01,2013-06-07 16:09:00,
2013-06-07 11:14:00,59.7,54.5,30.03,NW,317,0.0,0.0,83,0.00,,OVC044,0.00,VWS V14.01,2013-06-07 16:14:00,
2013-06-07 11:20:00,59.5,54.0,30.03,NW,317,0.0,0.0,82,0.00,,OVC026,0.00,VWS V14.01,2013-06-07 16:20:00,
2013-06-07 11:26:00,60.0,55.2,30.02,NW,317,0.0,0.0,84,0.00,,OVC026,0.00,VWS V14.01,2013-06-07 16:26:00,
2013-06-07 11:31:00,59.8,53.6,30.02,NW,317,0.0,0.0,80,0.00,,OVC026,0.00,VWS V14.01,2013-06-07 16:31:00,
2013-06-07 11:37:00,59.9,53.7,30.02,NW,317,0.0,0.0,80,0.00,,OVC026,0.00,VWS V14.01,2013-06-07 16:37:00,
2013-06-07 11:42:00,60.4,55.2,30.02,NW,317,0.0,0.0,83,0.00,,BKN045,0.00,VWS V14.01,2013-06-07 16:42:00,
2013-06-07 11:48:00,60.3,53.8,30.02,NW,317,0.0,0.0,79,0.00,,BKN045,0.00,VWS V14.01,2013-06-07 16:48:00,
2013-06-07 11:53:00,60.3,54.1,30.02,NW,317,0.0,0.0,80,0.00,,BKN045,0.00,VWS V14.01,2013-06-07 16:53:00,
2013-06-07 11:58:00,60.3,53.1,30.02,NW,317,0.0,0.0,77,0.00,,BKN045,0.00,VWS V14.01,2013-06-07 16:58:00,
2013-06-07 12:03:00,60.1,53.2,30.02,NW,317,0.0,0.0,78,0.00,,OVC043,0.00,VWS V14.01,2013-06-07 17:03:00,
2013-06-07 12:08:00,60.1,52.5,30.02,NW,317,0.0,0.0,76,0.00,,OVC043,0.00,VWS V14.01,2013-06-07 17:08:00,
2013-06-07 12:13:00,59.9,52.0,30.02,NW,317,0.0,0.0,75,0.00,,OVC043,0.00,VWS V14.01,2013-06-07 17:13:00,
2013-06-07 12:18:00,59.9,52.3,30.02,NW,317,0.0,0.0,76,0.00,,OVC043,0.00,VWS V14.01,2013-06-07 17:18:00,
2013-06-07 12:23:00,59.8,51.9,30.02,NW,317,0.0,0.0,75,0.00,,OVC041,0.00,VWS V14.01,2013-06-07 17:23:00,
2013-06-07 12:28:00,59.8,51.9,30.02,NW,317,0.0,0.0,75,0.00,,OVC041,0.00,VWS V14.01,2013-06-07 17:28:00,
2013-06-07 12:33:00,59.9,52.3,30.02,NW,317,0.0,0.0,76,0.00,,OVC041,0.00,VWS V14.01,2013-06-07 17:33:00,
2013-06-07 12:38:00,59.9,52.0,30.02,NW,317,0.0,0.0,75,0.00,,OVC041,0.00,VWS V14.01,2013-06-07 17:38:00,
2013-06-07 12:44:00,60.0,52.8,30.02,NW,317,0.0,0.0,77,0.00,,OVC039,0.00,VWS V14.01,2013-06-07 17:44:00,
2013-06-07 12:50:00,60.0,52.4,30.02,NW,317,0.0,0.0,76,0.00,,OVC039,0.00,VWS V14.01,2013-06-07 17:50:00,
2013-06-07 12:55:00,60.3,54.1,30.02,NW,317,0.0,0.0,80,0.00,,OVC039,0.00,VWS V14.01,2013-06-07 17:55:00,
2013-06-07 13:01:00,60.7,54.5,30.02,NW,317,0.0,0.0,80,0.00,,OVC037,0.00,VWS V14.01,2013-06-07 18:01:00,
2013-06-07 13:07:00,60.9,54.3,30.01,NW,317,0.0,0.0,79,0.00,,OVC037,0.00,VWS V14.01,2013-06-07 18:07:00,
2013-06-07 13:13:00,61.1,54.5,30.01,NW,317,0.0,0.0,79,0.00,,OVC037,0.00,VWS V14.01,2013-06-07 18:13:00,
2013-06-07 13:18:00,61.2,54.6,30.01,NW,317,0.0,0.0,79,0.00,,OVC037,0.00,VWS V14.01,2013-06-07 18:18:00,
2013-06-07 13:23:00,61.2,55.3,30.01,NW,317,0.0,0.0,81,0.00,,OVC037,0.00,VWS V14.01,2013-06-07 18:23:00,
2013-06-07 13:28:00,61.6,55.4,30.00,NW,317,0.0,0.0,80,0.00,,OVC040,0.00,VWS V14.01,2013-06-07 18:28:00,
2013-06-07 13:34:00,61.8,53.8,30.00,NW,317,0.0,0.0,75,0.00,,OVC040,0.00,VWS V14.01,2013-06-07 18:34:00,
2013-06-07 13:40:00,61.8,54.2,30.01,NW,317,0.0,0.0,76,0.00,,OVC044,0.00,VWS V14.01,2013-06-07 18:40:00,
2013-06-07 13:46:00,62.2,54.9,30.01,NW,317,0.0,0.0,77,0.00,,OVC044,0.00,VWS V14.01,2013-06-07 18:46:00,
2013-06-07 13:52:00,62.5,55.2,30.00,NW,317,0.0,0.0,77,0.00,,OVC044,0.00,VWS V14.01,2013-06-07 18:52:00,
2013-06-07 13:57:00,62.9,54.9,30.00,NW,317,0.0,0.0,75,0.00,,OVC044,0.00,VWS V14.01,2013-06-07 18:57:00,
2013-06-07 14:03:00,62.9,53.8,30.00,NW,317,0.0,0.0,72,0.00,,OVC044,0.00,VWS V14.01,2013-06-07 19:03:00,
2013-06-07 14:08:00,62.7,53.5,30.00,NW,317,0.0,0.0,72,0.00,,OVC044,0.00,VWS V14.01,2013-06-07 19:08:00,
2013-06-07 14:13:00,62.6,53.5,30.00,NW,317,0.0,0.0,72,0.00,,OVC044,0.00,VWS V14.01,2013-06-07 19:13:00,
2013-06-07 14:19:00,62.9,55.2,30.00,NW,317,0.0,0.0,76,0.00,,OVC044,0.00,VWS V14.01,2013-06-07 19:19:00,
2013-06-07 14:25:00,63.2,54.8,30.00,NW,317,0.0,0.0,74,0.00,,OVC046,0.00,VWS V14.01,2013-06-07 19:25:00,
2013-06-07 14:30:00,63.8,55.7,30.00,NW,317,0.0,0.0,75,0.00,,OVC046,0.00,VWS V14.01,2013-06-07 19:30:00,
2013-06-07 14:36:00,64.5,54.9,29.99,NW,317,0.0,1.0,71,0.00,,OVC046,0.00,VWS V14.01,2013-06-07 19:36:00,
2013-06-07 14:41:00,65.1,56.6,29.99,NW,317,0.0,0.0,74,0.00,,OVC048,0.00,VWS V14.01,2013-06-07 19:41:00,
2013-06-07 14:46:00,65.7,54.9,29.99,NW,317,0.0,1.0,68,0.00,,OVC048,0.00,VWS V14.01,2013-06-07 19:46:00,
2013-06-07 14:52:00,65.7,53.6,29.99,NW,317,0.0,0.0,65,0.00,,OVC048,0.00,VWS V14.01,2013-06-07 19:52:00,
2013-06-07 14:57:00,65.2,53.6,30.00,SW,225,1.0,1.0,66,0.00,,OVC048,0.00,VWS V14.01,2013-06-07 19:57:00,
2013-06-07 15:03:00,64.3,52.7,30.00,SW,224,0.0,0.0,66,0.00,,OVC050,0.00,VWS V14.01,2013-06-07 20:03:00,
2013-06-07 15:08:00,64.0,54.0,29.99,SW,224,0.0,0.0,70,0.00,,OVC050,0.00,VWS V14.01,2013-06-07 20:08:00,
2013-06-07 15:14:00,64.1,54.9,29.99,WSW,241,0.0,0.0,72,0.00,,OVC050,0.00,VWS V14.01,2013-06-07 20:14:00,
2013-06-07 15:19:00,63.9,53.1,29.99,WSW,241,0.0,0.0,68,0.00,,OVC050,0.00,VWS V14.01,2013-06-07 20:19:00,
2013-06-07 15:24:00,64.0,54.8,29.99,WSW,241,0.0,0.0,72,0.00,,OVC050,0.00,VWS V14.01,2013-06-07 20:24:00,
2013-06-07 15:29:00,63.7,53.7,29.99,WSW,241,0.0,0.0,70,0.00,,OVC050,0.00,VWS V14.01,2013-06-07 20:29:00,
2013-06-07 15:35:00,63.4,52.7,29.99,WSW,241,0.0,0.0,68,0.00,,OVC050,0.00,VWS V14.01,2013-06-07 20:35:00,
2013-06-07 15:40:00,63.4,53.5,29.99,WSW,241,0.0,0.0,70,0.00,,OVC055,0.00,VWS V14.01,2013-06-07 20:40:00,
2013-06-07 15:46:00,63.4,55.0,29.98,WSW,241,0.0,0.0,74,0.00,,OVC055,0.00,VWS V14.01,2013-06-07 20:46:00,
2013-06-07 15:51:00,63.4,55.0,29.99,WSW,242,0.0,0.0,74,0.00,,OVC055,0.00,VWS V14.01,2013-06-07 20:51:00,
2013-06-07 15:57:00,63.4,55.0,29.98,WSW,242,0.0,0.0,74,0.00,,OVC055,0.00,VWS V14.01,2013-06-07 20:57:00,
2013-06-07 16:04:00,63.5,55.4,29.98,NW,320,0.0,0.0,75,0.00,,OVC050,0.00,VWS V14.01,2013-06-07 21:04:00,
2013-06-07 16:09:00,63.5,54.7,29.98,NNW,342,0.0,0.0,73,0.00,,OVC050,0.00,VWS V14.01,2013-06-07 21:09:00,
2013-06-07 16:14:00,63.7,55.6,29.98,NNW,342,0.0,0.0,75,0.00,,OVC050,0.00,VWS V14.01,2013-06-07 21:14:00,
2013-06-07 16:19:00,64.1,56.0,29.98,NNW,342,0.0,0.0,75,0.00,,OVC050,0.00,VWS V14.01,2013-06-07 21:19:00,
2013-06-07 16:24:00,64.0,55.6,29.98,NNW,342,0.0,0.0,74,0.00,,OVC038,0.00,VWS V14.01,2013-06-07 21:24:00,
2013-06-07 16:31:00,63.9,54.7,29.98,NNW,327,0.0,0.0,72,0.00,,OVC038,0.00,VWS V14.01,2013-06-07 21:31:00,
2013-06-07 16:36:00,63.9,55.5,29.97,NNW,327,0.0,0.0,74,0.00,,OVC038,0.00,VWS V14.01,2013-06-07 21:36:00,
2013-06-07 16:41:00,63.9,54.7,29.97,NNW,327,0.0,0.0,72,0.00,,OVC060,0.00,VWS V14.01,2013-06-07 21:41:00,
2013-06-07 16:47:00,63.6,55.2,29.97,NNW,327,0.0,0.0,74,0.00,,OVC060,0.00,VWS V14.01,2013-06-07 21:47:00,
2013-06-07 16:52:00,63.4,53.5,29.97,NNW,327,0.0,0.0,70,0.00,,OVC060,0.00,VWS V14.01,2013-06-07 21:52:00,
2013-06-07 16:57:00,63.2,54.4,29.97,NNW,327,0.0,0.0,73,0.00,,OVC060,0.00,VWS V14.01,2013-06-07 21:57:00,
2013-06-07 17:02:00,63.1,54.3,29.97,NNW,327,0.0,0.0,73,0.00,,OVC060,0.00,VWS V14.01,2013-06-07 22:02:00,
2013-06-07 17:07:00,62.9,54.5,29.97,NNW,327,0.0,0.0,74,0.00,,OVC060,0.00,VWS V14.01,2013-06-07 22:07:00,
2013-06-07 17:12:00,62.8,54.8,29.97,NNW,327,0.0,0.0,75,0.00,,OVC060,0.00,VWS V14.01,2013-06-07 22:12:00,
2013-06-07 17:17:00,62.7,53.9,29.97,NNW,327,0.0,0.0,73,0.00,,OVC060,0.00,VWS V14.01,2013-06-07 22:17:00,
2013-06-07 17:24:00,62.8,54.4,29.97,NNW,327,0.0,0.0,74,0.00,,OVC049,0.00,VWS V14.01,2013-06-07 22:24:00,
2013-06-07 17:29:00,62.9,53.8,29.97,NNW,327,0.0,0.0,72,0.00,,OVC049,0.00,VWS V14.01,2013-06-07 22:29:00,
2013-06-07 17:34:00,63.0,55.3,29.96,NNW,327,0.0,0.0,76,0.00,,OVC049,0.00,VWS V14.01,2013-06-07 22:34:00,
2013-06-07 17:39:00,62.9,53.8,29.96,NNW,327,0.0,0.0,72,0.00,,OVC049,0.00,VWS V14.01,2013-06-07 22:39:00,
2013-06-07 17:45:00,63.0,54.6,29.96,NNW,327,0.0,0.0,74,0.00,,OVC060,0.00,VWS V14.01,2013-06-07 22:45:00,
2013-06-07 17:51:00,63.1,54.7,29.96,NNW,327,0.0,0.0,74,0.00,,OVC060,0.00,VWS V14.01,2013-06-07 22:51:00,
2013-06-07 17:57:00,63.9,54.3,29.96,NNW,327,0.0,0.0,71,0.00,,OVC060,0.00,VWS V14.01,2013-06-07 22:57:00,
2013-06-07 18:02:00,64.7,55.1,29.96,NNW,327,0.0,0.0,71,0.00,,BKN043,0.00,VWS V14.01,2013-06-07 23:02:00,
2013-06-07 18:07:00,65.4,56.9,29.96,NNW,327,0.0,0.0,74,0.00,,BKN043,0.00,VWS V14.01,2013-06-07 23:07:00,
2013-06-07 18:12:00,65.9,57.4,29.95,NNW,327,0.0,0.0,74,0.00,,BKN043,0.00,VWS V14.01,2013-06-07 23:12:00,
2013-06-07 18:18:00,65.9,55.0,29.95,NNW,327,0.0,0.0,68,0.00,,BKN043,0.00,VWS V14.01,2013-06-07 23:18:00,
2013-06-07 18:25:00,65.7,53.6,29.95,NNW,327,0.0,0.0,65,0.00,,SCT065,0.00,VWS V14.01,2013-06-07 23:25:00,
2013-06-07 18:30:00,65.7,54.5,29.95,NNW,327,0.0,0.0,67,0.00,,SCT065,0.00,VWS V14.01,2013-06-07 23:30:00,
2013-06-07 18:35:00,65.8,54.1,29.95,NNW,327,0.0,0.0,66,0.00,,SCT065,0.00,VWS V14.01,2013-06-07 23:35:00,
2013-06-07 18:41:00,65.8,53.3,29.95,NNW,327,0.0,0.0,64,0.00,,BKN065,0.00,VWS V14.01,2013-06-07 23:41:00,
2013-06-07 18:47:00,65.1,53.5,29.94,NNW,327,0.0,0.0,66,0.00,,BKN065,0.00,VWS V14.01,2013-06-07 23:47:00,
2013-06-07 18:52:00,64.7,53.9,29.94,NNW,327,0.0,0.0,68,0.00,,BKN065,0.00,VWS V14.01,2013-06-07 23:52:00,
2013-06-07 18:57:00,64.6,53.4,29.94,NNW,327,0.0,0.0,67,0.00,,BKN065,0.00,VWS V14.01,2013-06-07 23:57:00,
2013-06-07 19:03:00,64.5,54.1,29.94,NNW,327,0.0,0.0,69,0.00,,SCT036,0.00,VWS V14.01,2013-06-08 00:03:00,
2013-06-07 19:08:00,64.3,53.5,29.95,NNW,327,0.0,0.0,68,0.00,,SCT036,0.00,VWS V14.01,2013-06-08 00:08:00,
2013-06-07 19:14:00,64.0,54.0,29.95,NNW,327,0.0,0.0,70,0.00,,SCT036,0.00,VWS V14.01,2013-06-08 00:14:00,
2013-06-07 19:19:00,63.8,55.0,29.95,NNW,327,0.0,0.0,73,0.00,,SCT036,0.00,VWS V14.01,2013-06-08 00:19:00,
2013-06-07 19:24:00,63.7,55.6,29.95,NNW,327,0.0,0.0,75,0.00,,SCT038,0.00,VWS V14.01,2013-06-08 00:24:00,
2013-06-07 19:29:00,63.5,54.3,29.95,NNW,327,0.0,0.0,72,0.00,,SCT038,0.00,VWS V14.01,2013-06-08 00:29:00,
2013-06-07 19:34:00,63.5,55.1,29.95,NNW,327,0.0,0.0,74,0.00,,SCT038,0.00,VWS V14.01,2013-06-08 00:34:00,
2013-06-07 19:39:00,63.4,55.0,29.95,NNW,327,0.0,0.0,74,0.00,,SCT038,0.00,VWS V14.01,2013-06-08 00:39:00,
2013-06-07 19:44:00,63.2,54.0,29.95,NNW,327,0.0,0.0,72,0.00,,OVC036,0.00,VWS V14.01,2013-06-08 00:44:00,
2013-06-07 19:51:00,63.1,54.7,29.95,NNW,327,0.0,0.0,74,0.00,,OVC036,0.00,VWS V14.01,2013-06-08 00:51:00,
2013-06-07 19:56:00,63.0,54.6,29.95,NNW,327,0.0,0.0,74,0.00,,OVC036,0.00,VWS V14.01,2013-06-08 00:56:00,
2013-06-07 20:03:00,62.4,54.0,29.94,NNW,327,0.0,0.0,74,0.00,,OVC036,0.00,VWS V14.01,2013-06-08 01:03:00,
2013-06-07 20:08:00,62.1,54.1,29.94,NNW,327,0.0,0.0,75,0.00,,OVC036,0.00,VWS V14.01,2013-06-08 01:08:00,
2013-06-07 20:13:00,61.8,53.8,29.94,NNW,327,0.0,0.0,75,0.00,,OVC036,0.00,VWS V14.01,2013-06-08 01:13:00,
2013-06-07 20:18:00,61.5,53.5,29.94,NNW,327,0.0,0.0,75,0.00,,OVC036,0.00,VWS V14.01,2013-06-08 01:18:00,
2013-06-07 20:23:00,61.2,53.6,29.94,NNW,327,0.0,0.0,76,0.00,,OVC065,0.00,VWS V14.01,2013-06-08 01:23:00,
2013-06-07 20:28:00,61.0,53.4,29.94,NNW,327,0.0,0.0,76,0.00,,OVC065,0.00,VWS V14.01,2013-06-08 01:28:00,
2013-06-07 20:33:00,60.8,53.5,29.94,NNW,327,0.0,0.0,77,0.00,,OVC065,0.00,VWS V14.01,2013-06-08 01:33:00,
2013-06-07 20:39:00,60.6,54.1,29.94,NNW,327,0.0,0.0,79,0.00,,OVC065,0.00,VWS V14.01,2013-06-08 01:39:00,
2013-06-07 20:44:00,60.3,54.1,29.94,NNW,327,0.0,0.0,80,0.00,,OVC065,0.00,VWS V14.01,2013-06-08 01:44:00,
2013-06-07 20:49:00,60.0,53.8,29.94,NNW,327,0.0,0.0,80,0.00,,OVC065,0.00,VWS V14.01,2013-06-08 01:49:00,
2013-06-07 20:55:00,59.8,54.0,29.94,NNW,327,0.0,0.0,81,0.00,,OVC065,0.00,VWS V14.01,2013-06-08 01:55:00,
2013-06-07 21:00:00,59.5,54.0,29.94,NNW,327,0.0,0.0,82,0.00,,OVC048,0.00,VWS V14.01,2013-06-08 02:00:00,
2013-06-07 21:05:00,59.2,54.0,29.94,NNW,327,0.0,0.0,83,0.00,,OVC048,0.00,VWS V14.01,2013-06-08 02:05:00,
2013-06-07 21:11:00,58.9,53.8,29.95,NNW,327,0.0,0.0,83,0.00,,OVC048,0.00,VWS V14.01,2013-06-08 02:11:00,
2013-06-07 21:16:00,58.8,54.0,29.95,NNW,327,0.0,0.0,84,0.00,,OVC048,0.00,VWS V14.01,2013-06-08 02:16:00,
2013-06-07 21:21:00,58.7,53.9,29.95,NNW,327,0.0,0.0,84,0.00,,OVC050,0.00,VWS V14.01,2013-06-08 02:21:00,
2013-06-07 21:26:00,58.5,53.7,29.95,NNW,327,0.0,0.0,84,0.00,,OVC050,0.00,VWS V14.01,2013-06-08 02:26:00,
2013-06-07 21:32:00,58.4,53.6,29.95,NNW,327,0.0,0.0,84,0.00,,OVC050,0.00,VWS V14.01,2013-06-08 02:32:00,
2013-06-07 21:38:00,58.4,53.6,29.95,NNW,327,0.0,0.0,84,0.00,,OVC050,0.00,VWS V14.01,2013-06-08 02:38:00,
2013-06-07 21:44:00,58.5,54.0,29.95,NNW,327,0.0,0.0,85,0.00,,OVC042,0.00,VWS V14.01,2013-06-08 02:44:00,
2013-06-07 21:49:00,58.5,54.3,29.95,NNW,327,0.0,0.0,86,0.00,,OVC042,0.00,VWS V14.01,2013-06-08 02:49:00,
2013-06-07 21:54:00,58.5,54.3,29.96,NNW,327,0.0,0.0,86,0.00,,OVC042,0.00,VWS V14.01,2013-06-08 02:54:00,
2013-06-07 22:00:00,58.5,54.3,29.95,NNW,327,0.0,0.0,86,0.00,,-RA,0.00,VWS V14.01,2013-06-08 03:00:00,
2013-06-07 22:06:00,58.4,54.2,29.96,NNW,327,0.0,0.0,86,0.00,,-RA,0.00,VWS V14.01,2013-06-08 03:06:00,
2013-06-07 22:11:00,58.3,54.1,29.96,NNW,327,0.0,0.0,86,0.00,,-RA,0.00,VWS V14.01,2013-06-08 03:11:00,
2013-06-07 22:16:00,58.1,53.6,29.95,NNW,327,0.0,0.0,85,0.00,,-RA,0.00,VWS V14.01,2013-06-08 03:16:00,
2013-06-07 22:21:00,58.1,53.6,29.95,NNW,327,0.0,0.0,85,0.00,,-RA,0.00,VWS V14.01,2013-06-08 03:21:00,
2013-06-07 22:27:00,58.0,53.8,29.95,NNW,327,0.0,0.0,86,0.00,,OVC044,0.00,VWS V14.01,2013-06-08 03:27:00,
2013-06-07 22:32:00,57.9,53.4,29.95,NNW,327,0.0,0.0,85,0.00,,OVC044,0.00,VWS V14.01,2013-06-08 03:32:00,
2013-06-07 22:37:00,57.7,53.2,29.95,NNW,327,0.0,0.0,85,0.00,,OVC044,0.00,VWS V14.01,2013-06-08 03:37:00,
2013-06-07 22:42:00,57.7,53.2,29.95,NNW,327,0.0,0.0,85,0.00,,BKN070,0.00,VWS V14.01,2013-06-08 03:42:00,
2013-06-07 22:47:00,57.5,53.0,29.95,NNW,327,0.0,0.0,85,0.00,,BKN070,0.00,VWS V14.01,2013-06-08 03:47:00,
2013-06-07 22:52:00,57.3,53.2,29.95,NNW,327,0.0,0.0,86,0.00,,BKN070,0.00,VWS V14.01,2013-06-08 03:52:00,
2013-06-07 22:57:00,57.1,52.6,29.95,NNW,327,0.0,0.0,85,0.00,,BKN070,0.00,VWS V14.01,2013-06-08 03:57:00,
2013-06-07 23:01:00,56.9,52.4,29.94,NNW,327,0.0,0.0,85,0.00,,CLR,0.00,VWS V14.01,2013-06-08 04:01:00,
2013-06-07 23:03:00,56.8,52.3,29.94,NNW,327,0.0,0.0,85,0.00,,CLR,0.00,VWS V14.01,2013-06-08 04:03:00,
2013-06-07 23:04:00,56.8,52.7,29.94,NNW,327,0.0,0.0,86,0.00,,CLR,0.00,VWS V14.01,2013-06-08 04:04:00,
2013-06-07 23:05:00,56.7,52.6,29.94,NNW,327,0.0,0.0,86,0.00,,CLR,0.00,VWS V14.01,2013-06-08 04:05:00,
2013-06-07 23:10:00,56.5,52.4,29.94,NNW,327,0.0,0.0,86,0.00,,CLR,0.00,VWS V14.01,2013-06-08 04:10:00,
2013-06-07 23:12:00,56.4,52.3,29.94,NNW,327,0.0,0.0,86,0.00,,CLR,0.00,VWS V14.01,2013-06-08 04:12:00,
2013-06-07 23:17:00,56.2,52.4,29.94,NNW,327,0.0,0.0,87,0.00,,CLR,0.00,VWS V14.01,2013-06-08 04:17:00,
2013-06-07 23:22:00,56.1,52.3,29.94,NNW,327,0.0,0.0,87,0.00,,CLR,0.00,VWS V14.01,2013-06-08 04:22:00,
2013-06-07 23:27:00,55.9,52.4,29.93,NNW,327,0.0,0.0,88,0.00,,CLR,0.00,VWS V14.01,2013-06-08 04:27:00,
2013-06-07 23:33:00,55.8,52.3,29.93,NNW,327,0.0,0.0,88,0.00,,CLR,0.00,VWS V14.01,2013-06-08 04:33:00,
2013-06-07 23:38:00,55.7,52.5,29.93,NNW,327,0.0,0.0,89,0.00,,CLR,0.00,VWS V14.01,2013-06-08 04:38:00,
2013-06-07 23:44:00,55.5,52.3,29.93,NNW,327,0.0,0.0,89,0.00,,CLR,0.00,VWS V14.01,2013-06-08 04:44:00,
2013-06-07 23:49:00,55.5,52.3,29.93,NNW,327,0.0,0.0,89,0.00,,CLR,0.00,VWS V14.01,2013-06-08 04:49:00,
2013-06-07 23:54:00,55.4,52.5,29.93,NNW,327,0.0,0.0,90,0.00,,CLR,0.00,VWS V14.01,2013-06-08 04:54:00,
2013-06-07 23:59:00,55.4,52.5,29.92,NNW,327,0.0,0.0,90,0.00,,CLR,0.00,VWS V14.01,2013-06-08 04:59:00,